W5WDV Weather Reports


Display with metric or nautical units.
time (UTC)temp
F
wind
direction
speed
MPH
gust
MPH
rain 1hr
in
rain 24hr
in
rain mn
in
humidity
%
barometer
mb
20260510083004 72 207 0.0 0.0 0.00 0.01 0.00 17 1010.3
20260510082503 72 207 0.0 0.0 0.00 0.01 0.00 17 1010.3
20260510082006 72 207 0.0 0.0 0.00 0.01 0.00 17 1010.3
20260510081503 72 207 0.0 0.0 0.00 0.01 0.00 17 1010.3
20260510080004 73 207 0.0 0.0 0.00 0.01 0.00 28 1010.3
20260510075505 73 207 0.0 0.0 0.00 0.01 0.00 29 1010.2
20260510074504 74 207 0.0 0.0 0.00 0.01 0.00 29 1010.3
20260510073503 74 207 0.0 0.0 0.00 0.01 0.00 31 1010.1
20260510073004 74 207 0.0 0.0 0.00 0.01 0.00 32 1010.2
20260510072507 74 207 0.0 0.0 0.00 0.01 0.00 33 1010.2
20260510072006 74 207 0.0 1.0 0.00 0.01 0.00 32 1010.2
20260510071503 74 207 0.0 1.0 0.00 0.01 0.00 29 1010.2
20260510071004 74 207 0.0 1.0 0.00 0.01 0.00 26 1010.2
20260510070504 74 205 0.0 3.0 0.00 0.01 0.00 19 1010.2
20260510070007 74 205 0.0 3.0 0.00 0.01 0.00 17 1010.2
20260510065505 74 219 0.0 0.0 0.00 0.01 0.00 17 1010.1
20260510065004 74 219 0.0 1.0 0.00 0.01 0.00 17 1010.1
20260510064504 74 215 0.0 3.0 0.00 0.01 0.00 17 1010.1
20260510064005 75 210 1.0 3.0 0.00 0.01 0.00 17 1010.1
20260510063504 75 204 0.0 0.0 0.00 0.01 0.00 17 1010.1
20260510062004 75 204 0.0 0.0 0.00 0.01 0.00 17 1010.2
20260510061504 75 204 0.0 0.0 0.00 0.01 0.00 17 1010.2
20260510061006 75 204 0.0 0.0 0.00 0.01 0.00 17 1010.2
20260510060504 75 204 0.0 0.0 0.00 0.01 0.00 17 1010.2
20260510055954 76 204 0.0 0.0 0.00 0.01 0.00 17 1010.1
20260510054955 76 204 0.0 0.0 0.00 0.01 0.00 17 1010.1
20260510053954 76 204 0.0 0.0 0.00 0.01 0.00 17 1010.2
20260510053454 76 204 0.0 0.0 0.00 0.01 0.00 17 1010.2
20260510052954 76 204 0.0 0.0 0.00 0.01 0.00 17 1010.2
20260510052454 76 204 0.0 0.0 0.00 0.01 0.00 17 1010.1
20260510051454 77 204 0.0 0.0 0.00 0.01 0.00 17 1010.0
20260510051000 77 204 0.0 0.0 0.00 0.01 0.00 17 1009.9
20260510045958 77 204 0.0 0.0 0.00 0.01 0.00 20 1009.7
20260510045453 77 204 0.0 0.0 0.00 0.01 0.01 22 1009.8
20260510044954 77 204 0.0 0.0 0.00 0.01 0.01 27 1009.7
20260510044453 77 204 0.0 2.0 0.00 0.01 0.01 31 1009.6
20260510043954 77 204 0.0 2.0 0.00 0.01 0.01 32 1009.6
20260510043456 78 204 0.0 3.0 0.00 0.01 0.01 35 1009.6
20260510042955 78 204 0.0 3.0 0.00 0.01 0.01 36 1009.7
20260510042453 78 187 0.0 3.0 0.00 0.01 0.01 39 1009.6
20260510041954 78 175 0.0 3.0 0.00 0.01 0.01 42 1009.7
20260510041453 78 175 1.0 3.0 0.00 0.01 0.01 45 1009.7
20260510040954 78 178 1.0 3.0 0.00 0.01 0.01 47 1009.7
20260510040454 78 175 1.0 3.0 0.00 0.01 0.01 48 1009.7
20260510035454 78 189 1.0 5.0 0.00 0.01 0.01 46 1009.5
20260510034953 78 213 0.0 0.0 0.00 0.01 0.01 45 1009.4
20260510034454 78 213 0.0 0.0 0.00 0.01 0.01 49 1009.3
20260510033954 79 213 0.0 0.0 0.00 0.01 0.01 50 1009.3
20260510033454 79 213 0.0 0.0 0.00 0.01 0.01 52 1009.3
20260510032955 79 213 0.0 0.0 0.00 0.01 0.01 55 1009.3
20260510031955 80 213 0.0 0.0 0.00 0.01 0.01 58 1009.1
20260510031453 80 213 0.0 3.0 0.00 0.01 0.01 59 1009.0
20260510030954 80 213 0.0 3.0 0.00 0.01 0.01 59 1009.0
20260510030453 80 173 0.0 3.0 0.00 0.01 0.01 59 1009.0
20260510025956 80 163 0.0 0.0 0.00 0.01 0.01 60 1008.8
20260510025454 80 163 0.0 0.0 0.00 0.01 0.01 61 1008.8
20260510023954 81 163 0.0 0.0 0.00 0.01 0.01 63 1008.6
20260510023453 81 162 0.0 0.0 0.00 0.01 0.01 64 1008.6
20260510022954 81 163 0.0 0.0 0.00 0.01 0.01 65 1008.6
20260510022456 81 163 0.0 0.0 0.00 0.01 0.01 66 1008.5
20260510021954 82 162 0.0 0.0 0.00 0.01 0.01 66 1008.6
20260510021453 82 162 0.0 0.0 0.00 0.01 0.01 67 1008.5
20260510020956 82 162 0.0 0.0 0.00 0.01 0.01 67 1008.4
20260510020455 82 162 0.0 0.0 0.00 0.01 0.01 68 1008.3
20260510015953 82 163 0.0 0.0 0.00 0.01 0.01 68 1008.3
20260510014957 82 162 0.0 3.0 0.00 0.01 0.01 68 1008.2
20260510014455 83 162 1.0 3.0 0.00 0.01 0.01 69 1008.2
20260510013954 83 166 1.0 5.0 0.00 0.01 0.01 69 1008.1
20260510013454 83 172 2.0 5.0 0.00 0.01 0.01 69 1007.9
20260510012954 83 161 1.0 5.0 0.00 0.01 0.01 69 1007.9
20260510012453 83 159 2.0 5.0 0.00 0.01 0.01 69 1007.9
20260510011955 84 164 2.0 5.0 0.00 0.01 0.01 69 1007.8
20260510011454 84 167 2.0 6.0 0.00 0.01 0.01 69 1007.7
20260510010954 84 177 2.0 7.0 0.00 0.01 0.01 68 1007.7
20260510010454 84 166 2.0 7.0 0.00 0.01 0.01 68 1007.6
20260510005454 85 174 2.0 7.0 0.00 0.01 0.01 67 1007.6
20260510004954 85 160 3.0 7.0 0.00 0.01 0.01 67 1007.5
20260510004455 85 156 3.0 7.0 0.00 0.01 0.01 67 1007.5
20260510003954 86 167 2.0 9.0 0.00 0.01 0.01 66 1007.5
20260510003455 86 170 3.0 9.0 0.00 0.01 0.01 67 1007.4
20260510002954 86 147 3.0 12.0 0.00 0.01 0.01 67 1007.3
20260510002454 86 183 4.0 12.0 0.00 0.01 0.01 67 1007.2
20260510001954 86 193 4.0 12.0 0.00 0.01 0.01 67 1007.2
20260510000954 86 154 3.0 7.0 0.00 0.01 0.01 67 1007.1
20260510000455 85 148 1.0 5.0 0.00 0.01 0.01 68 1007.0
20260509235956 85 104 0.0 0.0 0.00 0.01 0.01 67 1006.9
20260509235454 85 104 0.0 5.0 0.00 0.01 0.01 67 1006.8
20260509234955 85 106 0.0 8.0 0.00 0.01 0.01 67 1006.9
20260509234454 86 60 3.0 8.0 0.00 0.01 0.01 68 1006.7
20260509233954 87 85 2.0 3.0 0.00 0.01 0.01 68 1006.7
20260509233455 88 92 0.0 0.0 0.00 0.01 0.01 68 1006.6
20260509232454 89 2 0.0 0.0 0.00 0.01 0.01 68 1006.4
20260509231954 89 0 0.0 0.0 0.00 0.01 0.01 66 1006.5
20260509230454 89 3 1.0 5.0 0.00 0.01 0.01 65 1007.2
20260509225955 90 130 1.0 5.0 0.00 0.01 0.01 64 1007.3
20260509225454 90 162 1.0 5.0 0.00 0.01 0.01 64 1007.0
20260509224955 90 225 1.0 5.0 0.00 0.01 0.01 64 1007.1
20260509224454 90 199 1.0 5.0 0.00 0.01 0.01 63 1007.1
20260509223954 90 191 1.0 3.0 0.00 0.01 0.01 64 1007.0
20260509223455 90 173 2.0 7.0 0.00 0.01 0.01 64 1006.8
20260509222958 90 184 2.0 7.0 0.00 0.01 0.01 64 1006.8
20260509221456 90 217 1.0 8.0 0.00 0.01 0.01 64 1006.9
20260509220954 91 225 3.0 8.0 0.00 0.01 0.01 64 1007.0
20260509215954 91 188 4.0 7.0 0.00 0.01 0.01 63 1006.8
20260509215454 92 216 4.0 7.0 0.00 0.01 0.01 63 1006.9
20260509214453 92 170 3.0 12.0 0.00 0.01 0.01 63 1007.0
20260509213954 92 212 3.0 6.0 0.00 0.01 0.01 61 1007.0
20260509213454 93 213 2.0 6.0 0.00 0.01 0.01 60 1006.9
20260509212454 93 277 2.0 6.0 0.00 0.01 0.01 62 1007.1
20260509211954 92 228 3.0 6.0 0.00 0.01 0.01 62 1007.1
20260509211454 93 146 2.0 8.0 0.00 0.01 0.01 60 1007.2
20260509210456 94 215 3.0 8.0 0.00 0.01 0.01 59 1007.4
20260509205457 94 186 1.0 3.0 0.00 0.01 0.01 62 1007.6
20260509204954 93 295 1.0 3.0 0.00 0.01 0.01 62 1007.6
20260509203954 93 288 2.0 7.0 0.00 0.01 0.01 62 1007.7
20260509203454 93 284 1.0 7.0 0.00 0.01 0.01 61 1007.7
20260509202955 93 207 1.0 3.0 0.00 0.01 0.01 62 1007.9
20260509202455 92 240 0.0 6.0 0.00 0.01 0.01 63 1007.9
20260509201955 92 281 2.0 6.0 0.00 0.01 0.01 63 1007.9
20260509201454 91 211 0.0 5.0 0.00 0.01 0.01 65 1008.0
20260509200954 90 211 0.0 5.0 0.00 0.01 0.01 65 1008.1
20260509200456 90 216 1.0 5.0 0.00 0.01 0.01 65 1008.2
20260509194955 90 207 1.0 3.0 0.00 0.01 0.01 66 1008.6
20260509193956 90 213 0.0 7.0 0.00 0.01 0.01 67 1008.8
20260509193455 91 217 3.0 7.0 0.00 0.01 0.01 64 1008.9
20260509192454 90 294 1.0 3.0 0.00 0.01 0.01 67 1009.0
20260509191955 90 220 0.0 3.0 0.00 0.01 0.01 67 1009.1
20260509191454 90 248 1.0 3.0 0.00 0.01 0.01 65 1009.1
20260509190955 90 319 1.0 3.0 0.00 0.01 0.01 65 1009.2
20260509185954 89 309 0.0 3.0 0.00 0.01 0.01 67 1009.2
20260509185454 89 309 1.0 3.0 0.00 0.01 0.01 67 1009.3
20260509184457 87 311 1.0 3.0 0.00 0.01 0.01 67 1009.4
20260509183455 88 218 0.0 3.0 0.00 0.01 0.01 67 1009.4
20260509182954 88 214 0.0 2.0 0.00 0.01 0.01 67 1009.5
20260509182455 89 188 1.0 6.0 0.00 0.01 0.01 66 1009.6
20260509181954 88 187 2.0 6.0 0.00 0.01 0.01 67 1009.6
20260509181455 88 96 0.0 3.0 0.00 0.01 0.01 66 1009.7
20260509180954 88 70 1.0 3.0 0.00 0.01 0.01 66 1009.7
20260509180855 88 76 1.0 3.0 0.00 0.01 0.01 66 1009.7
20260509180456 88 53 1.0 3.0 0.00 0.01 0.01 66 1009.8
20260509175954 87 312 2.0 3.0 0.00 0.01 0.01 65 1009.9
20260509175454 87 318 1.0 3.0 0.00 0.01 0.01 64 1009.9
20260509174955 87 357 1.0 3.0 0.00 0.01 0.01 65 1009.9
20260509174454 87 317 1.0 3.0 0.00 0.01 0.01 64 1010.0
20260509173454 86 98 1.0 3.0 0.00 0.01 0.01 55 1010.1
20260509172955 85 322 1.0 3.0 0.00 0.01 0.01 54 1010.2
20260509172454 85 316 1.0 2.0 0.00 0.01 0.01 47 1010.2
20260509171957 84 317 1.0 3.0 0.00 0.01 0.01 46 1010.4
20260509170958 83 320 2.0 5.0 0.00 0.01 0.01 28 1010.3
20260509170454 82 336 1.0 3.0 0.00 0.01 0.01 20 1010.3
20260509165955 81 337 0.0 3.0 0.00 0.01 0.01 17 1010.3
20260509165454 81 349 1.0 7.0 0.00 0.01 0.01 17 1010.3
20260509164454 79 332 1.0 3.0 0.00 0.01 0.01 17 1010.3
20260509163454 78 324 2.0 3.0 0.00 0.01 0.01 17 1010.3
20260509162955 77 306 1.0 3.0 0.00 0.01 0.01 17 1010.3
20260509162454 76 312 1.0 3.0 0.00 0.01 0.01 17 1010.0
20260509161454 75 322 2.0 5.0 0.00 0.01 0.01 17 1010.1
20260509160955 75 239 0.0 2.0 0.00 0.01 0.01 17 1009.9
20260509160454 75 239 0.0 2.0 0.00 0.01 0.01 17 1009.9
20260509155956 75 248 1.0 2.0 0.00 0.01 0.01 17 1010.0
20260509155454 75 192 0.0 2.0 0.00 0.01 0.01 17 1010.3
20260509154956 75 184 0.0 1.0 0.00 0.01 0.01 17 1010.3
20260509154457 75 184 0.0 1.0 0.00 0.01 0.01 17 1010.4
20260509153954 75 184 0.0 0.0 0.00 0.01 0.01 17 1010.4
20260509153458 75 184 0.0 0.0 0.00 0.01 0.01 17 1010.6
20260509152954 75 184 0.0 0.0 0.00 0.01 0.01 17 1010.8
20260509152454 74 184 0.0 0.0 0.00 0.01 0.01 17 1010.9
20260509151954 74 184 0.0 0.0 0.00 0.01 0.01 17 1010.9
20260509151455 74 184 0.0 0.0 0.00 0.01 0.01 17 1010.9
20260509150455 73 184 0.0 0.0 0.00 0.01 0.01 17 1010.9
20260509145954 73 184 0.0 0.0 0.00 0.01 0.01 17 1010.9
20260509145454 73 184 0.0 0.0 0.00 0.01 0.01 17 1010.9
20260509144955 73 184 0.0 0.0 0.00 0.01 0.01 17 1010.9
20260509143955 73 184 0.0 0.0 0.00 0.01 0.01 17 1010.9
20260509143454 73 184 0.0 0.0 0.00 0.01 0.01 17 1010.9
20260509142956 73 184 0.0 0.0 0.00 0.01 0.01 17 1011.0
20260509141955 73 203 0.0 0.0 0.00 0.01 0.01 17 1011.1
20260509141454 73 204 0.0 0.0 0.00 0.01 0.01 17 1010.9
20260509140955 73 193 0.0 0.0 0.00 0.01 0.01 17 1010.9
20260509140454 73 148 0.0 0.0 0.00 0.01 0.01 17 1010.8
20260509135955 73 148 0.0 0.0 0.00 0.01 0.01 17 1010.6
20260509135456 73 146 0.0 0.0 0.00 0.01 0.01 17 1010.5
20260509134955 73 144 0.0 0.0 0.00 0.01 0.01 17 1009.8
20260509134454 73 159 0.0 0.0 0.00 0.01 0.01 17 1009.4
20260509133954 73 165 0.0 0.0 0.00 0.01 0.01 17 1009.3
20260509133455 73 168 0.0 0.0 0.00 0.01 0.01 17 1009.2
20260509132954 73 171 0.0 0.0 0.00 0.01 0.01 17 1009.3
20260509132455 73 171 0.0 0.0 0.00 0.01 0.01 17 1009.5
20260509131954 73 171 0.0 3.0 0.00 0.01 0.01 17 1009.6
20260509131454 73 171 0.0 3.0 0.00 0.01 0.01 17 1009.7
20260509130955 73 179 0.0 2.0 0.00 0.01 0.01 17 1010.0
20260509130454 73 183 0.0 3.0 0.00 0.01 0.01 17 1009.9
20260509125954 73 185 0.0 3.0 0.00 0.01 0.01 17 1010.0
20260509125454 73 148 0.0 0.0 0.00 0.01 0.01 17 1010.1
20260509124958 73 114 0.0 0.0 0.00 0.01 0.01 17 1010.3
20260509124456 73 113 0.0 0.0 0.00 0.01 0.01 17 1010.4
20260509123955 73 113 0.0 0.0 0.00 0.01 0.01 17 1010.3
20260509123454 73 113 0.0 0.0 0.00 0.01 0.01 17 1010.3
20260509122955 73 109 0.0 0.0 0.00 0.01 0.01 17 1010.4
20260509122454 73 101 0.0 0.0 0.00 0.01 0.01 17 1010.5
20260509121956 73 101 0.0 0.0 0.00 0.01 0.01 17 1010.5
20260509121454 73 30 0.0 3.0 0.00 0.01 0.01 17 1010.4
20260509120955 73 355 1.0 7.0 0.00 0.01 0.01 17 1010.4
20260509120454 73 68 2.0 7.0 0.00 0.01 0.01 17 1010.6
20260509115957 73 58 2.0 6.0 0.00 0.01 0.01 17 1010.4
20260509115454 73 66 1.0 3.0 0.00 0.01 0.01 17 1010.4
20260509114454 73 77 0.0 6.0 0.00 0.01 0.01 17 1010.2
20260509113955 73 52 1.0 6.0 0.00 0.01 0.01 17 1010.0
20260509112454 73 97 0.0 0.0 0.00 0.01 0.01 17 1009.3
20260509111458 73 97 0.0 0.0 0.00 0.01 0.01 17 1009.2
20260509110957 73 97 0.0 0.0 0.00 0.01 0.01 17 1009.2
20260509110455 73 97 0.0 0.0 0.01 0.01 0.01 17 1009.3
20260509105955 73 97 0.0 0.0 0.01 0.01 0.01 17 1009.3
20260509105455 73 97 0.0 0.0 0.01 0.01 0.01 17 1009.3
20260509104956 73 98 0.0 0.0 0.01 0.01 0.01 17 1009.5
20260509104455 73 98 0.0 0.0 0.01 0.01 0.01 17 1009.5
20260509103958 73 98 0.0 0.0 0.01 0.01 0.01 17 1009.5
20260509103455 73 98 0.0 0.0 0.01 0.01 0.01 17 1009.5
20260509102954 73 98 0.0 0.0 0.01 0.01 0.01 17 1009.5
20260509102455 73 98 0.0 0.0 0.01 0.01 0.01 17 1009.5
20260509101955 73 98 0.0 0.0 0.01 0.01 0.01 17 1009.7
20260509101455 73 98 0.0 0.0 0.01 0.01 0.01 17 1009.7
20260509100955 73 104 0.0 0.0 0.01 0.01 0.01 17 1009.7
20260509100454 73 104 0.0 0.0 0.00 0.00 0.00 17 1009.7
20260509095956 73 104 0.0 0.0 0.00 0.00 0.00 17 1009.4
20260509095454 73 105 0.0 0.0 0.00 0.00 0.00 17 1009.2
20260509094957 73 126 0.0 0.0 0.00 0.00 0.00 17 1009.0
20260509093955 73 155 0.0 0.0 0.00 0.00 0.00 17 1008.9
20260509093454 73 173 0.0 0.0 0.00 0.00 0.00 17 1008.8
20260509092955 73 173 0.0 0.0 0.00 0.00 0.00 17 1008.6
20260509092456 73 173 0.0 0.0 0.00 0.00 0.00 17 1008.4
20260509091955 73 173 0.0 0.0 0.00 0.00 0.00 17 1008.4
20260509091455 73 173 0.0 0.0 0.00 0.00 0.00 17 1008.5
20260509090955 73 173 0.0 0.0 0.00 0.00 0.00 17 1008.7
20260509090458 73 173 0.0 0.0 0.00 0.00 0.00 17 1008.7
20260509085955 73 173 0.0 0.0 0.00 0.00 0.00 17 1008.7
20260509085455 73 173 0.0 0.0 0.00 0.00 0.00 17 1008.6
20260509084955 73 173 0.0 0.0 0.00 0.00 0.00 17 1008.5
20260509084455 73 173 0.0 0.0 0.00 0.00 0.00 17 1008.4
20260509083456 73 174 0.0 0.0 0.00 0.00 0.00 17 1008.5